EW5586 Weather Reports


time (UTC)temp
C
wind
direction
speed
KPH
gust
KPH
rain 1hr
cm
rain 24hr
cm
rain mn
cm
humidity
%
barometer
mb
20260504223522 15 233 16.1 25.7 0.00 0.03 0.03 62 1002.1
20260504223022 16 0 14.5 30.6 0.00 0.03 0.03 60 1002.2
20260504222521 16 237 16.1 30.6 0.00 0.03 0.03 59 1002.2
20260504222020 16 213 19.3 30.6 0.00 0.03 0.03 59 1002.2
20260504221518 16 209 19.3 32.2 0.00 0.03 0.03 58 1002.2
20260504220516 16 240 19.3 30.6 0.00 0.03 0.03 60 1002.2
20260504215513 16 213 20.9 32.2 0.00 0.03 0.03 59 1002.2
20260504215013 16 194 22.5 32.2 0.00 0.03 0.03 60 1002.3
20260504214513 16 226 20.9 32.2 0.00 0.03 0.03 59 1002.2
20260504213512 16 218 20.9 30.6 0.00 0.03 0.03 60 1002.2
20260504213011 15 216 20.9 32.2 0.00 0.03 0.03 61 1002.3
20260504212511 16 218 20.9 32.2 0.00 0.03 0.03 61 1002.3
20260504212005 15 206 20.9 30.6 0.00 0.03 0.03 61 1002.3
20260504211500 15 197 20.9 29.0 0.00 0.03 0.03 61 1002.3
20260504210953 15 220 22.5 30.6 0.00 0.03 0.03 61 1002.4
20260504210447 15 221 22.5 30.6 0.00 0.03 0.03 62 1002.5
20260504205942 15 207 22.5 35.4 0.00 0.03 0.03 62 1002.5
20260504205435 15 179 22.5 33.8 0.00 0.03 0.03 62 1002.6
20260504204929 15 211 22.5 35.4 0.00 0.03 0.03 62 1002.7
20260504204424 16 209 24.1 35.4 0.00 0.03 0.03 60 1002.7
20260504203416 15 207 22.5 32.2 0.00 0.03 0.03 64 1002.7
20260504202916 15 206 20.9 30.6 0.00 0.03 0.03 64 1002.7
20260504202416 14 213 19.3 30.6 0.00 0.03 0.03 65 1002.7
20260504201916 14 205 20.9 29.0 0.00 0.03 0.03 65 1002.9
20260504200916 15 220 22.5 35.4 0.00 0.03 0.03 61 1002.9
20260504200416 15 250 22.5 33.8 0.00 0.03 0.03 62 1003.0
20260504195915 15 190 22.5 35.4 0.00 0.03 0.03 61 1003.0
20260504195417 15 221 24.1 35.4 0.00 0.03 0.03 60 1003.1
20260504194916 16 205 24.1 35.4 0.00 0.03 0.03 56 1003.2
20260504194415 16 214 24.1 35.4 0.00 0.03 0.03 56 1003.2
20260504193415 16 0 22.5 37.0 0.00 0.03 0.03 55 1003.4
20260504192916 16 234 22.5 37.0 0.00 0.03 0.03 57 1003.5
20260504191915 15 219 24.1 38.6 0.00 0.03 0.03 61 1003.6
20260504191409 15 194 25.7 40.2 0.00 0.03 0.03 60 1003.5
20260504190903 16 203 29.0 43.5 0.00 0.03 0.03 55 1003.6
20260504190357 16 184 30.6 45.1 0.00 0.03 0.03 55 1003.6
20260504185851 16 220 30.6 48.3 0.00 0.03 0.03 53 1003.7
20260504185345 16 183 29.0 48.3 0.00 0.03 0.03 55 1003.8
20260504184839 16 183 22.5 45.1 0.00 0.03 0.03 56 1003.7
20260504183827 15 172 22.5 35.4 0.00 0.03 0.03 61 1003.9
20260504182815 14 196 25.7 38.6 0.00 0.03 0.03 64 1003.9
20260504182309 14 207 30.6 45.1 0.00 0.03 0.03 63 1003.9
20260504181803 15 222 29.0 45.1 0.00 0.03 0.03 60 1003.9
20260504180753 14 0 29.0 40.2 0.00 0.03 0.03 60 1004.1
20260504180245 14 0 29.0 48.3 0.00 0.03 0.03 61 1004.2
20260504175739 14 0 30.6 48.3 0.00 0.03 0.03 61 1004.2
20260504175233 14 216 30.6 43.5 0.00 0.03 0.03 62 1004.2
20260504174727 13 196 32.2 51.5 0.00 0.03 0.03 64 1004.3
20260504173715 13 191 29.0 40.2 0.00 0.03 0.03 65 1004.4
20260504173210 13 210 29.0 41.8 0.00 0.03 0.03 66 1004.5
20260504172704 13 194 29.0 49.9 0.00 0.03 0.03 66 1004.5
20260504172158 13 195 30.6 49.9 0.00 0.03 0.03 65 1004.5
20260504171651 13 204 30.6 41.8 0.00 0.03 0.03 64 1004.7
20260504171145 13 199 30.6 43.5 0.00 0.03 0.03 67 1004.6
20260504170639 13 203 32.2 43.5 0.00 0.03 0.03 66 1004.7
20260504150921 11 232 24.1 37.0 0.00 0.03 0.03 70 1005.2
20260504140837 10 213 17.7 27.4 0.00 0.03 0.03 77 1005.4
20260504140340 10 213 17.7 27.4 0.00 0.03 0.03 77 1005.4
20260504130326 8 217 19.3 27.4 0.00 0.03 0.03 83 1005.6
20260504120259 9 192 14.5 24.1 0.00 0.03 0.03 81 1005.5
20260504110251 8 235 9.7 19.3 0.00 0.03 0.03 79 1005.2
20260504100540 -17 0.0 0.0 0.00 0.03 0.03 1004.9
20260504082003 7 227 11.3 16.1 0.00 0.03 0.03 93 1004.9
20260504081503 7 192 9.7 16.1 0.00 0.03 0.03 93 1004.9
20260504081001 7 207 9.7 16.1 0.00 0.03 0.03 93 1004.9
20260504080458 7 205 9.7 14.5 0.00 0.03 0.03 93 1004.9
20260504050336 8 209 9.7 14.5 0.00 0.00 0.00 85 1006.9
20260504045830 8 196 8.0 14.5 0.00 0.00 0.00 83 1006.9
20260504045324 8 211 6.4 12.9 0.00 0.00 0.00 81 1007.0
20260504044312 8 240 6.4 16.1 0.00 0.00 0.00 80 1007.1
20260504042755 8 209 8.0 17.7 0.00 0.00 0.00 79 1007.0
20260504042248 8 229 8.0 17.7 0.00 0.00 0.00 79 1007.0
20260504041742 8 209 8.0 17.7 0.00 0.00 0.00 79 1007.0
20260504041236 8 225 8.0 12.9 0.00 0.00 0.00 78 1007.0
20260504040730 8 0 8.0 14.5 0.00 0.00 0.00 78 1007.2
20260504040224 8 234 9.7 20.9 0.00 0.00 0.00 78 1007.2
20260504035718 8 217 11.3 25.7 0.00 0.00 0.00 77 1007.1
20260504035212 8 215 9.7 25.7 0.00 0.00 0.00 77 1007.0
20260504034706 8 211 6.4 17.7 0.00 0.00 0.00 77 1007.0
20260504034201 8 217 9.7 22.5 0.00 0.00 0.00 76 1007.0
20260504033148 8 216 8.0 17.7 0.00 0.00 0.00 76 1007.1
20260504032642 8 225 14.5 24.1 0.00 0.00 0.00 77 1007.0
20260504031630 8 180 14.5 22.5 0.00 0.00 0.00 78 1007.1
20260504031124 8 237 12.9 20.9 0.00 0.00 0.00 75 1007.1
20260504030618 8 188 12.9 22.5 0.00 0.00 0.00 76 1007.1
20260504025606 8 211 14.5 24.1 0.00 0.00 0.00 80 1007.2
20260504025100 8 221 12.9 20.9 0.00 0.00 0.00 80 1007.3
20260504024555 8 234 12.9 19.3 0.00 0.00 0.00 80 1007.3
20260504024048 8 217 12.9 19.3 0.00 0.00 0.00 79 1007.4
20260504023544 8 228 12.9 19.3 0.00 0.00 0.00 78 1007.4
20260504023043 8 217 12.9 19.3 0.00 0.00 0.00 76 1007.5
20260504022024 8 209 12.9 20.9 0.00 0.00 0.00 77 1007.6
20260504021518 8 205 11.3 20.9 0.00 0.00 0.00 78 1007.5
20260504021012 7 213 12.9 17.7 0.00 0.00 0.00 80 1007.6
20260504020506 8 220 12.9 17.7 0.00 0.00 0.00 81 1007.6
20260504020000 8 208 12.9 17.7 0.00 0.00 0.00 80 1007.6
20260504014948 8 0 16.1 22.5 0.00 0.00 0.00 78 1007.6
20260504014444 8 216 16.1 24.1 0.00 0.00 0.00 77 1007.6
20260504013945 8 218 16.1 24.1 0.00 0.00 0.00 76 1007.6
20260504013444 8 223 16.1 24.1 0.00 0.00 0.00 75 1007.6
20260504012945 8 0 16.1 24.1 0.00 0.00 0.00 73 1007.7
20260504012444 8 221 14.5 22.5 0.00 0.00 0.00 72 1007.8
20260504011944 8 226 12.9 20.9 0.00 0.00 0.00 70 1007.8
20260504010944 9 216 12.9 20.9 0.00 0.00 0.00 69 1007.7
20260504010444 9 220 9.7 19.3 0.00 0.00 0.00 66 1007.6
20260504005944 9 202 9.7 17.7 0.00 0.00 0.00 60 1007.6
20260504005444 9 216 11.3 19.3 0.00 0.00 0.00 62 1007.6
20260504003944 8 0 17.7 27.4 0.00 0.00 0.00 68 1007.5
20260504003445 9 213 17.7 25.7 0.00 0.00 0.00 68 1007.6
20260504002444 10 194 17.7 25.7 0.00 0.00 0.00 57 1007.5
20260504001938 10 211 14.5 25.7 0.00 0.00 0.00 56 1007.5
20260504001433 10 236 14.5 27.4 0.00 0.00 0.00 51 1007.4
20260504000933 10 216 14.5 27.4 0.00 0.00 0.00 49 1007.4
20260503235932 10 219 14.5 32.2 0.00 0.00 0.00 50 1007.4
20260503234933 10 231 16.1 27.4 0.00 0.00 0.00 50 1007.4
20260503234434 10 216 14.5 27.4 0.00 0.00 0.00 49 1007.3
20260503233932 10 211 16.1 30.6 0.00 0.00 0.00 49 1007.3
20260503233432 11 198 16.1 30.6 0.00 0.00 0.00 47 1007.4
20260503232932 11 219 14.5 30.6 0.00 0.00 0.00 45 1007.4
20260503232432 11 0 16.1 30.6 0.00 0.00 0.00 45 1007.4
20260503231932 11 228 12.9 30.6 0.00 0.00 0.00 45 1007.3
20260503231432 11 238 12.9 30.6 0.00 0.00 0.00 45 1007.4
20260503230929 11 235 17.7 35.4 0.00 0.00 0.00 48 1007.4
20260503230428 11 205 16.1 35.4 0.00 0.00 0.00 45 1007.3
20260503225928 11 0 14.5 29.0 0.00 0.00 0.00 46 1007.4
20260503225428 11 239 14.5 32.2 0.00 0.00 0.00 46 1007.3
20260503224430 10 230 19.3 32.2 0.00 0.00 0.00 55 1007.3